Weather History for Stevens Point, WI

Change the Weather History Date:

Sunday, February 26, 2012

  Actual Average Record
Temperature  
Mean Temperature 32 °F -  
Max Temperature 42 °F 33 °F 53 °F (1976)
Min Temperature 21 °F 11 °F -21 °F (1963)
Degree Days  
Heating Degree Days 34    
Moisture  
Dew Point 20 °F    
Average Humidity 64    
Maximum Humidity 86    
Minimum Humidity 49    
Precipitation  
Precipitation 0.00 in - - ()
Sea Level Pressure  
Sea Level Pressure 29.93 in    
Wind  
Wind Speed 10 mph (SSE)    
Max Wind Speed 22 mph    
Max Gust Speed 34 mph    
Visibility 10 miles    
Events      
Averages and records for this station are not official NWS values.
T = Trace of Precipitation, MM = Missing Value Source: NWS Daily Summary

Daily Weather History Graph

Daily Weather History Graph

Search for Another Location

Airport:

Trip Planner

Search our weather history database for the weather conditions in past years. The results will help you decide how hot, cold, wet, or windy it might be!

Date:

Astronomy

Feb. 26, 2012 Rise Set
Actual Time 6:41 AM CST 5:41 PM CST
Civil Twilight 6:12 AM CST 6:10 PM CST
Nautical Twilight 5:38 AM CST 6:44 PM CST
Astronomical Twilight 5:04 AM CST 7:18 PM CST
Moon 8:22 AM CST (2/26) 10:54 PM CST (2/26)
Length of Visible Light 11h 58m
Length of Day
10h 59m
Waxing Crescent, 21% of the Moon is Illuminated
Feb 26
Waxing Crescent
Feb 29
First Quarter
Mar 8
Full
Mar 14
Last Quarter
Mar 22
New

Hourly Weather History & Observations

Time (CST) Temp. Windchill Dew Point Humidity Pressure Visibility Wind Dir Wind Speed Gust Speed Precip Events Conditions
12:35 AM 21.2 °F 16.4 °F 15.8 °F 80% 30.20 in 10.0 mi SSE 3.5 mph - N/A   Mostly Cloudy
12:55 AM 21.2 °F - 15.8 °F 80% 30.19 in 10.0 mi Calm Calm - N/A   Scattered Clouds
1:15 AM 21.2 °F 16.4 °F 15.8 °F 80% 30.18 in 10.0 mi SSE 3.5 mph - N/A   Mostly Cloudy
1:35 AM 21.2 °F - 17.6 °F 86% 30.17 in 10.0 mi Calm Calm - N/A   Scattered Clouds
1:55 AM 23.0 °F 18.4 °F 17.6 °F 80% 30.17 in 10.0 mi ESE 3.5 mph - N/A   Scattered Clouds
2:15 AM 23.0 °F 17.0 °F 17.6 °F 80% 30.18 in 10.0 mi SSE 4.6 mph - N/A   Overcast
2:35 AM 23.0 °F 17.0 °F 15.8 °F 74% 30.17 in 10.0 mi SE 4.6 mph - N/A   Mostly Cloudy
2:55 AM 23.0 °F 15.8 °F 15.8 °F 74% 30.15 in 10.0 mi ESE 5.8 mph - N/A   Overcast
3:15 AM 23.0 °F 17.0 °F 15.8 °F 74% 30.16 in 10.0 mi ESE 4.6 mph - N/A   Overcast
3:35 AM 23.0 °F 15.8 °F 15.8 °F 74% 30.16 in 10.0 mi ESE 5.8 mph - N/A   Overcast
3:55 AM 23.0 °F 13.9 °F 15.8 °F 74% 30.14 in 10.0 mi ESE 8.1 mph - N/A   Overcast
4:15 AM 21.2 °F 11.7 °F 15.8 °F 80% 30.13 in 10.0 mi ESE 8.1 mph - N/A   Overcast
4:35 AM 21.2 °F 11.7 °F 15.8 °F 80% 30.12 in 10.0 mi ESE 8.1 mph - N/A   Overcast
4:55 AM 21.2 °F 11.7 °F 15.8 °F 80% 30.11 in 10.0 mi ESE 8.1 mph - N/A   Overcast
5:15 AM 21.2 °F 11.7 °F 15.8 °F 80% 30.10 in 10.0 mi ESE 8.1 mph - N/A   Overcast
5:55 AM 21.2 °F 11.7 °F 14.0 °F 74% 30.09 in 10.0 mi ESE 8.1 mph - N/A   Overcast
6:15 AM 21.2 °F 8.9 °F 14.0 °F 74% 30.08 in 10.0 mi ESE 12.7 mph 16.1 mph N/A   Overcast
6:35 AM 21.2 °F 8.3 °F 12.2 °F 68% 30.06 in 10.0 mi ESE 13.8 mph 17.3 mph N/A   Overcast
6:55 AM 21.2 °F 9.5 °F 12.2 °F 68% 30.06 in 10.0 mi ESE 11.5 mph 16.1 mph N/A   Overcast
7:35 AM 21.2 °F 8.3 °F 14.0 °F 74% 30.05 in 10.0 mi ESE 13.8 mph 17.3 mph N/A   Mostly Cloudy
7:55 AM 21.2 °F 8.3 °F 14.0 °F 74% 30.04 in 10.0 mi ESE 13.8 mph 20.7 mph N/A   Mostly Cloudy
8:15 AM 23.0 °F 10.1 °F 14.0 °F 68% 30.02 in 10.0 mi ESE 15.0 mph 25.3 mph N/A   Mostly Cloudy
8:55 AM 24.8 °F 11.5 °F 15.8 °F 69% 30.01 in 10.0 mi ESE 17.3 mph 21.9 mph N/A   Scattered Clouds
9:15 AM 24.8 °F 13.4 °F 15.8 °F 69% 29.98 in 10.0 mi ESE 12.7 mph 23.0 mph N/A   Scattered Clouds
9:35 AM 26.6 °F 13.8 °F 15.8 °F 64% 29.93 in 10.0 mi East 17.3 mph 26.5 mph N/A   Mostly Cloudy
9:55 AM 26.6 °F 14.3 °F 17.6 °F 69% 29.93 in 10.0 mi SE 16.1 mph 26.5 mph N/A   Scattered Clouds
10:15 AM 28.4 °F 16.6 °F 17.6 °F 64% 29.92 in 10.0 mi ESE 16.1 mph 27.6 mph N/A   Clear
10:35 AM 30.2 °F 17.1 °F 17.6 °F 60% 29.91 in 10.0 mi SE 21.9 mph 29.9 mph N/A   Clear
10:55 AM 32.0 °F 20.5 °F 17.6 °F 55% 29.89 in 10.0 mi SE 18.4 mph 26.5 mph N/A   Clear
11:15 AM 33.8 °F 23.5 °F 19.4 °F 56% 29.87 in 10.0 mi SE 16.1 mph 21.9 mph N/A   Clear
11:35 AM 35.6 °F 24.5 °F 19.4 °F 52% 29.85 in 10.0 mi SE 20.7 mph 25.3 mph N/A   Clear
11:55 AM 35.6 °F 24.5 °F 19.4 °F 52% 29.86 in 10.0 mi SSE 20.7 mph 28.8 mph N/A   Scattered Clouds
12:35 PM 35.6 °F 25.5 °F 21.2 °F 56% 29.82 in 10.0 mi SSE 17.3 mph 25.3 mph N/A   Scattered Clouds
12:55 PM 37.4 °F 28.2 °F 21.2 °F 52% 29.81 in 10.0 mi SSE 16.1 mph 27.6 mph N/A   Scattered Clouds
1:15 PM 39.2 °F 29.6 °F 21.2 °F 49% 29.82 in 10.0 mi South 19.6 mph 28.8 mph N/A   Scattered Clouds
1:35 PM 39.2 °F 32.5 °F 23.0 °F 52% 29.80 in 10.0 mi South 10.4 mph 24.2 mph N/A   Mostly Cloudy
1:55 PM 41.0 °F 35.2 °F 24.8 °F 53% 29.79 in 10.0 mi South 9.2 mph 25.3 mph N/A   Mostly Cloudy
2:15 PM 39.2 °F 30.5 °F 24.8 °F 56% 29.80 in 10.0 mi South 16.1 mph 19.6 mph N/A   Mostly Cloudy
2:35 PM 39.2 °F 31.6 °F 24.8 °F 56% 29.79 in 10.0 mi SSE 12.7 mph 19.6 mph N/A   Overcast
2:55 PM 42.8 °F 36.6 °F 24.8 °F 49% 29.78 in 10.0 mi SSE 11.5 mph 18.4 mph N/A   Mostly Cloudy
3:15 PM 42.8 °F 35.4 °F 26.6 °F 53% 29.77 in 10.0 mi South 15.0 mph 23.0 mph N/A   Scattered Clouds
3:35 PM 42.8 °F 35.4 °F 26.6 °F 53% 29.77 in 10.0 mi South 15.0 mph 21.9 mph N/A   Scattered Clouds
3:55 PM 42.8 °F 37.0 °F 26.6 °F 53% 29.77 in 10.0 mi SSE 10.4 mph 17.3 mph N/A   Overcast
4:15 PM 42.8 °F 37.0 °F 26.6 °F 53% 29.76 in 10.0 mi SSE 10.4 mph - N/A   Overcast
4:35 PM 42.8 °F 36.6 °F 26.6 °F 53% 29.76 in 10.0 mi South 11.5 mph 17.3 mph N/A   Overcast
4:55 PM 42.8 °F 35.4 °F 26.6 °F 53% 29.75 in 10.0 mi South 15.0 mph 21.9 mph N/A   Mostly Cloudy
5:15 PM 42.8 °F 35.8 °F 28.4 °F 57% 29.76 in 10.0 mi South 13.8 mph 20.7 mph N/A   Scattered Clouds
5:35 PM 42.8 °F 36.6 °F 28.4 °F 57% 29.76 in 10.0 mi South 11.5 mph 18.4 mph N/A   Scattered Clouds
5:55 PM 42.8 °F 36.2 °F 28.4 °F 57% 29.77 in 10.0 mi South 12.7 mph 19.6 mph N/A   Mostly Cloudy
6:15 PM 42.8 °F 35.8 °F 28.4 °F 57% 29.78 in 10.0 mi SSW 13.8 mph 23.0 mph N/A   Mostly Cloudy
6:35 PM 42.8 °F 34.8 °F 26.6 °F 53% 29.79 in 10.0 mi SW 17.3 mph 27.6 mph N/A   Scattered Clouds
6:55 PM 42.8 °F 33.8 °F 24.8 °F 49% 29.80 in 10.0 mi SW 21.9 mph 28.8 mph N/A   Mostly Cloudy
7:15 PM 41.0 °F 31.6 °F 24.8 °F 53% 29.81 in 10.0 mi WSW 20.7 mph 28.8 mph N/A   Mostly Cloudy
7:35 PM 37.4 °F 27.2 °F 24.8 °F 60% 29.83 in 10.0 mi WSW 19.6 mph 31.1 mph N/A   Clear
7:55 PM 35.6 °F 24.5 °F 24.8 °F 65% 29.83 in 10.0 mi SW 20.7 mph 34.5 mph N/A   Clear
8:15 PM 35.6 °F 24.8 °F 23.0 °F 60% 29.85 in 10.0 mi SW 19.6 mph 27.6 mph N/A   Mostly Cloudy
8:35 PM 35.6 °F 26.6 °F 23.0 °F 60% 29.86 in 10.0 mi WSW 13.8 mph 21.9 mph N/A   Overcast
8:55 PM 33.8 °F 23.5 °F 21.2 °F 60% 29.86 in 10.0 mi WSW 16.1 mph 24.2 mph N/A   Overcast
9:15 PM 33.8 °F 23.9 °F 21.2 °F 60% 29.87 in 10.0 mi WSW 15.0 mph 24.2 mph N/A   Overcast
9:35 PM 33.8 °F 23.9 °F 21.2 °F 60% 29.87 in 10.0 mi WSW 15.0 mph 23.0 mph N/A   Overcast
9:55 PM 33.8 °F 24.8 °F 21.2 °F 60% 29.87 in 10.0 mi SW 12.7 mph 18.4 mph N/A   Overcast
10:15 PM 33.8 °F 22.5 °F 21.2 °F 60% 29.88 in 10.0 mi WSW 19.6 mph 26.5 mph N/A   Overcast
10:35 PM 33.8 °F 24.3 °F 21.2 °F 60% 29.88 in 10.0 mi WSW 13.8 mph 21.9 mph N/A   Overcast
10:55 PM 33.8 °F 23.5 °F 21.2 °F 60% 29.87 in 10.0 mi WSW 16.1 mph 27.6 mph N/A   Overcast
11:15 PM 32.0 °F 20.8 °F 21.2 °F 64% 29.88 in 10.0 mi WSW 17.3 mph 23.0 mph N/A   Overcast
11:35 PM 30.2 °F 18.9 °F 21.2 °F 69% 29.88 in 10.0 mi WSW 16.1 mph 24.2 mph N/A   Overcast
11:55 PM 30.2 °F 19.3 °F 19.4 °F 64% 29.89 in 10.0 mi WSW 15.0 mph 28.8 mph N/A   Overcast